• In Hungary
  • List of Countries
  • For 7 days
  • Water Temperature
  • Satellite Maps
  • Weather Map
  • News
  • Weather Widgets
  • user-avatar
    Login

    Hourly Weather Boglaevo

    Today, 28 May, Monday

    Time Temperature Precipitation Wind Pressure Humidity
    00:00 +9°C° 0 mm 2 mps 757 mmHg 47%
    01:00 +8°C° 0 mm 2 mps 758 mmHg 50%
    02:00 +7°C° 0 mm 2 mps 759 mmHg 53%
    03:00 +7°C° 0 mm 2 mps 759 mmHg 53%
    04:00 +8°C° 0 mm 2 mps 760 mmHg 53%
    05:00 +8°C° 0 mm 2 mps 760 mmHg 53%
    06:00 +10°C° 0 mm 2 mps 761 mmHg 47%
    07:00 +13°C° 0 mm 2 mps 761 mmHg 41%
    08:00 +15°C° 0 mm 2 mps 761 mmHg 34%
    09:00 +16°C° 0 mm 2 mps 761 mmHg 33%
    10:00 +17°C° 0 mm 2 mps 761 mmHg 31%
    11:00 +18°C° 0 mm 2 mps 761 mmHg 29%
    12:00 +19°C° 0 mm 2 mps 761 mmHg 29%
    13:00 +20°C° 0 mm 2 mps 761 mmHg 28%
    14:00 +21°C° 0 mm 2 mps 760 mmHg 28%
    15:00 +21°C° 0 mm 1 mps 760 mmHg 29%
    16:00 +21°C° 0 mm 1 mps 760 mmHg 31%
    17:00 +21°C° 0 mm 1 mps 760 mmHg 33%
    18:00 +19°C° 0 mm 1 mps 759 mmHg 40%
    19:00 +16°C° 0 mm 1 mps 759 mmHg 48%
    20:00 +14°C° 0 mm 1 mps 759 mmHg 55%
    21:00 +13°C° 0 mm 1 mps 759 mmHg 56%
    22:00 +12°C° 0 mm 1 mps 760 mmHg 57%
    23:00 +11°C° 0 mm 1 mps 760 mmHg 58%

    Tomorrow, 29 May, Tuesday

    Time Temperature Precipitation Wind Pressure Humidity
    00:00 +11°C° 0 mm 1 mps 760 mmHg 59%
    01:00 +9°C° 0 mm 2 mps 760 mmHg 61%
    02:00 +9°C° 0 mm 2 mps 760 mmHg 63%
    03:00 +9°C° 0 mm 2 mps 759 mmHg 62%
    04:00 +10°C° 0 mm 2 mps 759 mmHg 62%
    05:00 +12°C° 0 mm 2 mps 759 mmHg 61%
    06:00 +13°C° 0 mm 3 mps 759 mmHg 55%
    07:00 +16°C° 0 mm 3 mps 758 mmHg 50%
    08:00 +18°C° 0 mm 3 mps 758 mmHg 44%
    09:00 +20°C° 0 mm 3 mps 757 mmHg 40%
    10:00 +21°C° 0 mm 3 mps 757 mmHg 37%
    11:00 +22°C° 0 mm 4 mps 756 mmHg 33%
    12:00 +23°C° 0 mm 4 mps 755 mmHg 33%
    13:00 +25°C° 0 mm 4 mps 755 mmHg 33%
    14:00 +25°C° 0 mm 4 mps 754 mmHg 32%
    15:00 +25°C° 0 mm 4 mps 753 mmHg 36%
    16:00 +25°C° 0 mm 4 mps 752 mmHg 40%
    17:00 +23°C° 0 mm 4 mps 752 mmHg 43%
    18:00 +22°C° 0 mm 3 mps 751 mmHg 53%
    19:00 +20°C° 0 mm 3 mps 750 mmHg 63%
    20:00 +18°C° 0 mm 2 mps 750 mmHg 72%
    21:00 +17°C° 0 mm 2 mps 750 mmHg 75%
    22:00 +16°C° 0 mm 3 mps 749 mmHg 77%
    23:00 +16°C° 0 mm 3 mps 749 mmHg 79%

    Day after tomorrow, 30 May, Wednesday

    Time Temperature Precipitation Wind Pressure Humidity
    00:00 +14°C° 0 mm 3 mps 749 mmHg 78%
    01:00 +14°C° 0 mm 3 mps 748 mmHg 78%
    02:00 +13°C° 0 mm 3 mps 748 mmHg 78%
    03:00 +14°C° 0 mm 4 mps 747 mmHg 74%
    04:00 +14°C° 0 mm 4 mps 747 mmHg 71%
    05:00 +14°C° 0 mm 4 mps 746 mmHg 67%
    06:00 +16°C° 0 mm 5 mps 746 mmHg 62%
    07:00 +17°C° 0 mm 5 mps 745 mmHg 57%
    08:00 +20°C° 0 mm 5 mps 745 mmHg 52%
    09:00 +21°C° 0 mm 6 mps 745 mmHg 47%
    10:00 +22°C° 0 mm 6 mps 744 mmHg 43%
    11:00 +24°C° 0 mm 7 mps 744 mmHg 39%
    12:00 +24°C° 0 mm 7 mps 744 mmHg 37%
    13:00 +24°C° 0 mm 7 mps 744 mmHg 35%
    14:00 +24°C° 0 mm 6 mps 744 mmHg 33%
    15:00 +23°C° 0 mm 6 mps 744 mmHg 34%
    16:00 +22°C° 0 mm 5 mps 743 mmHg 35%
    17:00 +21°C° 0 mm 5 mps 743 mmHg 36%
    18:00 +19°C° 0 mm 4 mps 744 mmHg 42%
    19:00 +17°C° 0 mm 3 mps 744 mmHg 48%
    20:00 +14°C° 0 mm 3 mps 744 mmHg 54%
    21:00 +13°C° 0 mm 2 mps 744 mmHg 57%
    22:00 +12°C° 0 mm 2 mps 744 mmHg 60%
    23:00 +10°C° 0 mm 2 mps 745 mmHg 62%

    31 May, Thursday

    Time Temperature Precipitation Wind Pressure Humidity
    00:00 +10°C° 0 mm 2 mps 745 mmHg 67%
    01:00 +9°C° 0 mm 3 mps 746 mmHg 72%
    02:00 +9°C° 0 mm 3 mps 746 mmHg 77%
    03:00 +9°C° 0 mm 3 mps 746 mmHg 74%
    04:00 +7°C° 0 mm 4 mps 747 mmHg 71%
    05:00 +7°C° 0 mm 4 mps 747 mmHg 68%
    06:00 +8°C° 0 mm 4 mps 748 mmHg 63%
    07:00 +10°C° 0 mm 4 mps 748 mmHg 57%
    08:00 +11°C° 0 mm 4 mps 749 mmHg 51%
    09:00 +11°C° 0 mm 4 mps 749 mmHg 47%
    10:00 +12°C° 0 mm 4 mps 749 mmHg 43%
    11:00 +13°C° 0 mm 4 mps 750 mmHg 40%
    12:00 +13°C° 0 mm 4 mps 750 mmHg 36%
    13:00 +14°C° 0 mm 4 mps 750 mmHg 33%
    14:00 +14°C° 0 mm 4 mps 750 mmHg 29%
    15:00 +14°C° 0 mm 4 mps 750 mmHg 30%
    16:00 +13°C° 0 mm 4 mps 750 mmHg 31%
    17:00 +13°C° 0 mm 4 mps 751 mmHg 32%
    18:00 +11°C° 0 mm 3 mps 751 mmHg 39%
    19:00 +10°C° 0 mm 3 mps 751 mmHg 46%
    20:00 +8°C° 0 mm 2 mps 752 mmHg 53%
    21:00 +7°C° 0 mm 2 mps 752 mmHg 54%
    22:00 +5°C° 0 mm 3 mps 753 mmHg 56%
    23:00 +4°C° 0 mm 3 mps 753 mmHg 57%

    1 June, Friday

    Time Temperature Precipitation Wind Pressure Humidity
    00:00 +3°C° 0 mm 3 mps 754 mmHg 59%
    01:00 +2°C° 0 mm 3 mps 754 mmHg 60%
    02:00 +3°C° 0 mm 2 mps 755 mmHg 62%
    03:00 +2°C° 0 mm 3 mps 755 mmHg 60%
    04:00 +2°C° 0 mm 3 mps 755 mmHg 59%
    05:00 +3°C° 0 mm 3 mps 755 mmHg 57%
    06:00 +4°C° 0 mm 3 mps 756 mmHg 52%
    07:00 +7°C° 0 mm 3 mps 756 mmHg 47%
    08:00 +8°C° 0 mm 3 mps 756 mmHg 42%
    09:00 +9°C° 0 mm 3 mps 756 mmHg 40%
    10:00 +10°C° 0 mm 3 mps 756 mmHg 38%
    11:00 +11°C° 0 mm 3 mps 756 mmHg 36%
    12:00 +12°C° 0 mm 3 mps 756 mmHg 35%
    13:00 +13°C° 0 mm 3 mps 755 mmHg 34%
    14:00 +14°C° 0 mm 3 mps 755 mmHg 33%
    15:00 +14°C° 0 mm 3 mps 755 mmHg 34%
    16:00 +15°C° 0 mm 2 mps 755 mmHg 35%
    17:00 +15°C° 0 mm 2 mps 755 mmHg 36%
    18:00 +13°C° 0 mm 2 mps 755 mmHg 44%
    19:00 +11°C° 0 mm 1 mps 755 mmHg 52%
    20:00 +9°C° 0 mm 1 mps 755 mmHg 60%
    21:00 +8°C° 0 mm 1 mps 756 mmHg 62%
    22:00 +6°C° 0 mm 0 mps 756 mmHg 64%
    23:00 +4°C° 0 mm 0 mps 756 mmHg 66%

    2 June, Saturday

    Time Temperature Precipitation Wind Pressure Humidity
    00:00 +4°C° 0 mm 0 mps 756 mmHg 68%
    01:00 +3°C° 0 mm 0 mps 756 mmHg 70%
    02:00 +3°C° 0 mm 0 mps 757 mmHg 71%
    03:00 +4°C° 0 mm 0 mps 757 mmHg 68%
    04:00 +5°C° 0 mm 0 mps 757 mmHg 65%
    05:00 +7°C° 0 mm 0 mps 757 mmHg 62%
    06:00 +9°C° 0 mm 0 mps 757 mmHg 54%
    07:00 +12°C° 0 mm 0 mps 757 mmHg 47%
    08:00 +15°C° 0 mm 1 mps 757 mmHg 39%
    09:00 +18°C° 0 mm 1 mps 756 mmHg 36%
    10:00 +19°C° 0 mm 1 mps 756 mmHg 33%
    11:00 +20°C° 0 mm 1 mps 756 mmHg 30%
    12:00 +20°C° 0 mm 1 mps 755 mmHg 30%
    13:00 +21°C° 0 mm 1 mps 755 mmHg 29%
    14:00 +21°C° 0 mm 1 mps 754 mmHg 29%
    15:00 +20°C° 0 mm 2 mps 754 mmHg 31%
    16:00 +19°C° 0 mm 2 mps 753 mmHg 32%
    17:00 +19°C° 0 mm 2 mps 752 mmHg 34%
    18:00 +17°C° 0 mm 2 mps 752 mmHg 43%
    19:00 +15°C° 0 mm 2 mps 752 mmHg 52%
    20:00 +13°C° 0 mm 1 mps 752 mmHg 60%
    21:00 +12°C° 0 mm 1 mps 752 mmHg 62%
    22:00 +11°C° 0 mm 1 mps 752 mmHg 64%
    23:00 +9°C° 0 mm 1 mps 752 mmHg 66%
    Show more